Regional Weather Roundup
Issued by NWS

Home | Current Version | Previous Version | Text Only | Print | Product List | Glossary Off
Versions: 1 2 3 4 5 6 7 8 9 10 11 12 13 14 15 16 17 18 19 20 21 22 23 24 25 26 27 28 29 30 31 32 33 34 35 36 37 38 39 40 41 42 43 44 45 46 47 48 49 50

000
ASUS43 KMKX 252200
RWRWI

WISCONSIN REGIONAL WEATHER ROUNDUP
NATIONAL WEATHER SERVICE MILWAUKEE/SULLIVAN WI
400 PM CST SAT FEB 25 2017

NOTE: "FAIR" INDICATES FEW OR NO CLOUDS BELOW 12,000 FEET WITH NO
SIGNIFICANT WEATHER AND/OR OBSTRUCTIONS TO VISIBILITY.

WIZ001-002-006>008-014>016-023>028-252300-
NORTHWEST WISCONSIN

CITY           SKY/WX    TMP DP  RH WIND       PRES   REMARKS
SUPERIOR ARPT  MOSUNNY   30  13  49 W15G24    29.81F WCI  19
ASHLAND        SUNNY     27   9  46 W12       29.81S WCI  17
HAYWARD        MOSUNNY   28   9  44 VRB6      29.80S WCI  22
SIREN          MOSUNNY   31  11  42 W8        29.84F WCI  24
CUMBERLAND     SUNNY     30  10  43 W13       29.84S WCI  20
RICE LAKE      MOSUNNY   29  11  46 W6        29.86S WCI  23
CHETEK         MOSUNNY   29  11  46 W10G17    29.86R WCI  20
LADYSMITH      MOSUNNY   27   8  43 W14       29.85R WCI  16
EAU CLAIRE     NOT AVBL
MENOMONIE      SUNNY     30   9  42 W12       29.89S WCI  20
NEW RICHMOND   SUNNY     32  12  42 W13       29.87S WCI  23
OSCEOLA        PTSUNNY   33  14  45 W10G17    29.90S WCI  25
$$

WIZ003>005-009-010-017-018-252300-
NORTH CENTRAL WISCONSIN

CITY           SKY/WX    TMP DP  RH WIND       PRES   REMARKS
MANITOWISH WTR SUNNY     21   9  60 NW8G18    29.74R WCI  12
ARBOR VITAE    SUNNY     23   9  55 W10G20      N/A  WCI  12
WOODRUFF       SUNNY     23   9  55 W10G20      N/A  WCI  12
RHINELANDER    SUNNY     23   8  52 W15G24    29.75S WCI  10
EAGLE RIVER    MOSUNNY   19   8  62 W14G20    29.73S WCI   6
LAND O LAKES   PTSUNNY   21  12  67 NW12G18   29.74R WCI   9
PHILLIPS       PTSUNNY   25   6  44 W9G17     29.78R WCI  15
TOMAHAWK       SUNNY     24   7  48 NW10G17   29.78S WCI  13
MEDFORD        SUNNY     24   6  46 NW12G20   29.80R WCI  12
MERRILL        NOT AVBL
$$

WIZ029-030-035-036-043>047-252300-
CENTRAL WISCONSIN

CITY           SKY/WX    TMP DP  RH WIND       PRES   REMARKS
WAUSAU         SUNNY     22   7  52 W15       29.81R WCI   9
MOSINEE        SUNNY     21   9  58 W14       29.84R WCI   8
MARSHFIELD     SUNNY     23   6  48 W16G22    29.83R WCI  10
STEVENS POINT  SUNNY     20   6  53 W13G22    29.85R WCI   7
WAUPACA        SUNNY     25   8  49 W13G22    29.87R WCI  13
WAUTOMA        SUNNY     24  11  57 W16       29.88R WCI  11
WISC RAPIDS    SUNNY     25   7  46 NW14      29.88R WCI  13
CAMP DOUGLAS   NOT AVBL
$$

WIZ011>013-019>022-031-037>040-048>050-252300-
NORTHEAST WISCONSIN

CITY           SKY/WX    TMP DP  RH WIND       PRES   REMARKS
ANTIGO         MOSUNNY   19   8  61 NW14G21   29.78R WCI   6
SHAWANO        CLOUDY    25  11  55 CALM      29.83R
OCONTO         CLOUDY    24  13  62 W15G26    29.81R WCI  11
STURGEON BAY   CLOUDY    25  16  68 W13G24    29.79R WCI  14
GREEN BAY      SUNNY     23  12  62 W15G26    29.84R WCI  10
MANITOWOC      NOT AVBL
APPLETON       MOSUNNY   21   9  58 W15G23    29.83R WCI   8
CLINTONVILLE   PTSUNNY   23  10  58 W15       29.85R WCI  10
OSHKOSH        SUNNY     22  10  60 W9        29.86R WCI  12
$$

WIZ032>034-041-042-053>061-252300-
SOUTHWEST WISCONSIN

CITY           SKY/WX    TMP DP  RH WIND       PRES   REMARKS
LA CROSSE      SUNNY     28  11  48 W12       29.96R WCI  18
SPARTA         SUNNY     27  11  50 W16       29.93R WCI  15
VIROQUA        SUNNY     24  11  57 W10       29.92R WCI  13
BOSCOBEL       SUNNY     28   9  44 NW9       29.97R WCI  19
PRAIRIE DU CHI SUNNY     28  10  48 NW12      29.98S WCI  17
PLATTEVILLE    SUNNY     26  16  67 W5        29.96R WCI  20
$$

WIZ056-057-062-063-064-067-068-252300-
SOUTH CENTRAL WISCONSIN

CITY           SKY/WX    TMP DP  RH WIND       PRES   REMARKS
REEDSBURG      SUNNY     24  10  53 W12       29.92R WCI  13
BARABOO/DELLS  SUNNY     24  10  54 W9        29.90R WCI  15
LONE ROCK      NOT AVBL
MINERAL POINT  SUNNY     28  18  64 NW5       29.93R WCI  23
MADISON        MOSUNNY   24  11  57 NW12G23   29.91R WCI  13
MIDDLETON      SUNNY     26  15  63 NW7       29.91R WCI  19
WATERTOWN      MOSUNNY   23  14  69 NW12G18   29.89S WCI  12
MONROE         SUNNY     27  12  54 W16G22    29.92R WCI  14
JANESVILLE     PTSUNNY   27  16  63 W16       29.92R WCI  14
$$

WIZ051-052-058>065-066-070>072-252300-
SOUTHEAST WISCONSIN

CITY           SKY/WX    TMP DP  RH WIND       PRES   REMARKS
MILWAUKEE      PTSUNNY   23  11  60 W14       29.90R WCI  11
WAUKESHA       CLOUDY    19  12  73 W17G26    29.90R WCI   4
MILWAUKEE/TIMM PTSUNNY   21  10  63 W13G24    29.90R WCI   9
RACINE         CLOUDY    22  11  62 NW14G21   29.92R WCI   9
KENOSHA        PTSUNNY   24  14  65 W17       29.91R WCI  11
FOND DU LAC    SUNNY     22  10  60 W14       29.87R WCI   9
SHEBOYGAN      PTSUNNY   22  12  65 W14G21    29.85R WCI   9
WEST BEND      FLURRIES  21  16  79 W6        29.87R WCI  14
JUNEAU         PTSUNNY   21  13  70 W6        29.90R WCI  13
$$

LSZ147-162-252300-
LAKE SUPERIOR

STATION/POSITION TIME  TEMP    WIND        PRES    WAVE
                       AIR SEA DIR/SP/G            HT/PER
                 (UTC) (F)     (DEG/KT/KT) (MB)    (FT/S)
DEVILS ISLAND    2100   25     250/ 17/ 21 1009.4S
PORT WING        2130   26     270/ 11/ 18 1009.8S
SAXON HARBOR     2140   27     290/ 10/ 12 1009.5S
$$

LMZ867-665-643>646-252300-
LAKE MICHIGAN

STATION/POSITION TIME  TEMP    WIND        PRES    WAVE
                       AIR SEA DIR/SP/G            HT/PER
                 (UTC) (F)     (DEG/KT/KT) (MB)    (FT/S)
CHAMBERS ISLAND  2140   26      CALM  /  2 1007.8R
NORTHPORT PIER   2140   26     290/  1/  2 1007.5R
SISTER BAY       2135   25        CALM       N/A
KEWAUNEE LAKESHO 2130   23     290/ 20/ 26 1008.6R
SHEBOYGAN LAKESH 2100   22     280/ 16/ 20 1011.4R
PORT WASHINGTON  2140   23     280/ 12/ 20 1012.9R
MILWAUKEE LAKESH 2140   21     280/ 15/ 21   N/A
KENOSHA   LAKESH 2100   21     300/ 17/ 22 1012.5
$$

TC  - TEMPERATURE IN CELSIUS
VSB - VISIBILITY IN STATUTE MILES
WCI - WIND CHILL INDEX
HX  - HEAT INDEX




USA.gov is the U.S. government's official web portal to all federal, state and local government web resources and services.